星链-32400 (STARLINK-32400)

导读

STARLINK-32400是美国太空探索技术公司(SpaceX)于2024年10月26日发射的星链(Starlink)系列卫星,属于星链全球卫星互联网星座组网的组成部分。作为低轨互联网卫星,它依托近地轨道部署,为全球偏远地区、海洋等网络覆盖薄弱区域提供低延迟、高速的宽带互联网服务,助力星链持续扩展全球覆盖范围,推动卫星互联网的普及应用。

Basic Information
目录编号:
61669
目录名称:
STARLINK-32400
国际标识:
2024-193J
轨道中心:
EARTH
卫星名称:
星链-32400
卫星全名:
星链-32400 (STARLINK-32400)
卫星状态:
在轨 (已飞行599 天)
发射日期:
2024-10-26 UTC
国别 :
美国 (US)
星等 :
--
Orbit Information
数据来源 国际轨道数据 AOE轨道数据
星历时间 2026-06-17T12:50:16+0800
19小时前
查看轨道信息
2026-06-13T08:00:00+0800
4天前
查看轨道信息
半长轴 6853.564km 6853.338km
偏心率 0.0001583 0.0000614
轨道倾角 53.162° 53.160°
近地点辐角 104.163° 85.516°
升交点赤经 346.565° 6.081°
平近点角 255.954° 156.644°
近地点 474.342km 474.78km
远地点 476.512km 475.622km
周期 94.110分钟 94.105分钟
每日圈数 15.301291 15.30205
Detailed Information
固有亮度:
5
最大亮度:
2.5
卫星平台:
Starlink V1.0
覆盖范围:
全球
运营商:
太空探索技术公司
运营商所在国:
美国
制造商(研发单位):
太空探索技术公司
制造商所在国:
美国
使用方式:
暂无
Satellite Introduction
Starlink 计划是 SpaceX 推出的全球卫星互联网项目,通过发射低轨道卫星,为全球尤其是偏远地区提供高速、低延迟的互联网服务。自 2019 年起,Starlink 已部署数千颗卫星,旨在缩小全球数字鸿沟,推动互联网普及。该项目还为军事、航空等行业提供通信支持,带来广泛经济效益。
2D Orbit Map
3D Orbit Map
Orbit Altitude Analysis Chart
Orbit Inclination Analysis Chart
Orbit Comprehensive Analysis Chart
View Comprehensive Chart